Regional Weather Roundup
Issued by NWS Northern Indiana

Home | Current Version | Previous Version | Text Only | Print | Product List | Glossary Off
Versions: 1 2 3 4 5 6 7 8 9 10 11 12 13 14 15 16 17 18 19 20 21 22 23 24 25 26 27 28 29 30 31 32 33 34 35 36 37 38 39 40 41 42 43 44 45 46 47 48 49 50

000
ASUS43 KIWX 291800
RWRIWX

KIWX WEATHER ROUNDUP
NATIONAL WEATHER SERVICE NORTHERN INDIANA
200 PM EDT SUN MAY 29 2016

NOTE: "FAIR" INDICATES FEW OR NO CLOUDS BELOW 12,000 FEET WITH NO
SIGNIFICANT WEATHER AND/OR OBSTRUCTIONS TO VISIBILITY.

* THESE STATIONS ARE NOT UNDER NWS QUALITY CONTROL. THEY ALSO MAY NOT
  REPORT WEATHER SUCH AS PRECIPITATION OR FOG.

INZ001>027-291900-
NORTHERN INDIANA

CITY           SKY/WX    TMP DP  RH WIND       PRES   REMARKS
GARY*          MOSUNNY   81  66  61 W21       30.02S
SOUTH BEND     PTSUNNY   83  56  39 SW20G26   30.01F
6HR MIN TEMP:  67; 6HR MAX TEMP:  84;

ELKHART*         N/A     82  61  47 MISG      30.01F
GOSHEN         MOSUNNY   82  57  42 SW20G25   30.01F
6HR MIN TEMP:  70; 6HR MAX TEMP:  83;

ANGOLA*          N/A     86  81  84 SW17      30.01F HX 102
FORT WAYNE     PTSUNNY   88  61  40 W18       30.02F
6HR MIN TEMP:  71; 6HR MAX TEMP:  88;


$$
INZ028>050-291900-
CENTRAL INDIANA

CITY           SKY/WX    TMP DP  RH WIND       PRES   REMARKS
LAFAYETTE      MOSUNNY   82  57  42 W13       30.04F
6HR MIN TEMP:  68; 6HR MAX TEMP:  83;

KOKOMO*        MOSUNNY   82  61  47 W14G23    30.04S
6HR MIN TEMP:  72; 6HR MAX TEMP:  84;

MUNCIE*        PTSUNNY   85  63  47 W8G17     30.05F
6HR MIN TEMP:  72; 6HR MAX TEMP:  87;

INDIANAPOLIS   PTSUNNY   83  64  52 SW6       30.05F
6HR MIN TEMP:  70; 6HR MAX TEMP:  84;


$$
MIZ043>046-050>051-056>058-064>065-071>073-077>080-291900-
SOUTHWEST LOWER MICHIGAN

CITY           SKY/WX    TMP DP  RH WIND       PRES   REMARKS
BATTLE CREEK   MOSUNNY   81  59  47 SW16      30.00F
6HR MIN TEMP:  69; 6HR MAX TEMP:  81;

BENTON HARBOR  SUNNY     79  60  52 W16G24    30.00F
6HR MIN TEMP:  68; 6HR MAX TEMP:  81;

COLDWATER*     MOSUNNY   81  60  47 SW15G22   30.00F
6HR MIN TEMP:  70; 6HR MAX TEMP:  83;

HILLSDALE*     MOSUNNY   83  56  39 SW12G18   30.02F
6HR MIN TEMP:  67; 6HR MAX TEMP:  83;

HOLLAND        SUNNY     80  60  50 SW21G33   30.00F
6HR MIN TEMP:  69; 6HR MAX TEMP:  80;

GRAND RAPIDS   PTSUNNY   81  56  42 W20G25    29.98F
6HR MIN TEMP:  71; 6HR MAX TEMP:  83;

KALAMAZOO      MOSUNNY   81  57  43 W16G24    30.00F
6HR MIN TEMP:  70; 6HR MAX TEMP:  82;

STURGIS*       SUNNY     83  59  44 SW21G28   30.00F
6HR MIN TEMP:  69; 6HR MAX TEMP:  83;

THREE RIVERS*  FAIR      83  57  41 SW15      30.00F
6HR MIN TEMP:  70; 6HR MAX TEMP:  83;


$$
OHZ001>008-015>018-024>025-291900-
NORTHWEST OHIO

CITY           SKY/WX    TMP DP  RH WIND       PRES   REMARKS
DEFIANCE       PTSUNNY   86  61  42 SW15G21   30.01F
6HR MIN TEMP:  70; 6HR MAX TEMP:  87;

FINDLAY        PTSUNNY   84  64  50 SW15      30.04F
6HR MIN TEMP:  71; 6HR MAX TEMP:  84;

TOLEDO EXPRESS MOSUNNY   87  64  46 SW16      30.01F
6HR MIN TEMP:  70; 6HR MAX TEMP:  87;

TOLEDO METCALF CLOUDY    85  62  46 SW20      30.02F
6HR MIN TEMP:  71; 6HR MAX TEMP:  86;

LIMA           CLOUDY    82  66  58 SW9G18    30.05F
6HR MIN TEMP:  69; 6HR MAX TEMP:  83;


$$
AND FOR LAKE MICHIGAN COASTAL AND OPEN LAKE BUOY OBSERVATIONS

STATION/POSITION TEMP    WIND        PRES    VSBY  WAVE
                 AIR SEA DIR/SP/G                  HT/PER
                 (F)     (DEG/KT/KT) (MB)    (MI)  (FT/S)
CALUMET HARBOR    78     230/ 15/ 20 1015.4F
MICHIGAN CITY     72     230/ 20/ 21   N/A
BURNS HARBOR      76     240/ 20/ 25 1016.3F
SAINT JOSEPH      71     180/  9/ 11 1016.6F
SOUTH LAKE BUOY   55 50  190/ 10/ 12 1015.2          1/ 3
4 MI NW BRIDGMAN  66 63  240/  8/  8   N/A           1
MICHIGAN CITY     65 57  260/ 10/ 12   N/A           1/ 2

$$
&&



USA.gov is the U.S. government's official web portal to all federal, state and local government web resources and services.